Regional Weather Roundup
Issued by NWS

Home | Current Version | Previous Version | Graphics & Text | Print | Product List | Glossary On
Versions: 1 2 3 4 5 6 7 8 9 10 11 12 13 14 15 16 17 18 19 20 21 22 23 24 25 26 27 28 29 30 31 32 33 34 35 36 37 38 39 40 41 42 43 44 45 46 47 48 49 50
564
ASUS43 KDTX 181810
RWRMI
MICHIGAN HOURLY REGIONAL WEATHER ROUNDUP
NATIONAL WEATHER SERVICE DETROIT/PONTIAC MI
200 PM EDT FRI AUG 18 2017

NOTE: "FAIR" INDICATES FEW OR NO CLOUDS BELOW 12,000 FEET WITH NO
SIGNIFICANT WEATHER AND/OR OBSTRUCTION TO VISIBILITY.

MIZ047>049-052>055-059>063-066>070-074>076-081>083-181900-
SOUTHEAST LOWER MICHIGAN

CITY           SKY/WX    TMP DP  RH WIND       PRES   REMARKS
ADRIAN         CLOUDY    74  62  66 W13G21    29.83F
6HR MIN TEMP:  67; 6HR MAX TEMP:  76;

ALMA           CLOUDY    71  61  70 W15G25    29.79R
ANN ARBOR      CLOUDY    78  62  57 MISG      29.80S
BAD AXE        CLOUDY    70  62  76 W14       29.73R
CARO           CLOUDY    71  62  73 SW12G17   29.74S
DETROIT CITY   CLOUDY    76  61  59 NW15G26   29.77S
6HR MIN TEMP:  71; 6HR MAX TEMP:  77;

DETROIT        CLOUDY    77  63  61 W15G22    29.80R
6HR MIN TEMP:  70; 6HR MAX TEMP:  80;

FLINT          CLOUDY    72  62  71 W21G28    29.78S
6HR MIN TEMP:  67; 6HR MAX TEMP:  72; 6HR PCP: TRACE;

GROSSE ILE     CLOUDY    78  62  58 W14G21    29.78S
6HR MIN TEMP:  70; 6HR MAX TEMP:  78; 6HR PCP:  0.01;

HILLSDALE      CLOUDY    73  61  64 W14G24    29.84F
HOWELL         CLOUDY    73  61  66 W12G21    29.80S
6HR MIN TEMP:  66; 6HR MAX TEMP:  73;


CITY           SKY/WX    TMP DP  RH WIND       PRES   REMARKS
JACKSON          N/A     73  61  65 W15G24    29.82S
6HR MIN TEMP:  68; 6HR MAX TEMP:  73;

LAMBERTVILLE   CLOUDY    77  61  56 W13G20    29.82S
6HR MIN TEMP:  69; 6HR MAX TEMP:  78;

LANSING        CLOUDY    73  58  59 W18       29.81R
6HR MIN TEMP:  65; 6HR MAX TEMP:  74; 6HR PCP:  0.01;

LAPEER         CLOUDY    71  61  72 W8G17     29.77S
6HR MIN TEMP:  66; 6HR MAX TEMP:  73; 6HR PCP:  0.05;

MASON          CLOUDY    74  61  64 W14G24    29.81S
MONROE         CLOUDY    79  63  57 W17G24    29.80S
6HR MIN TEMP:  70; 6HR MAX TEMP:  79;

MT. CLEMENS    CLOUDY    76  62  62 W16G22    29.75S
6HR MIN TEMP:  72; 6HR MAX TEMP:  78; 6HR PCP: TRACE;

PONTIAC        CLOUDY    71  62  73 W20G26    29.78R
6HR MIN TEMP:  67; 6HR MAX TEMP:  74;

PORT HOPE        N/A     74  63  68 W9G23     29.68S
6HR MIN TEMP:  67; 6HR MAX TEMP:  74; 6HR PCP:  0.01;

PORT HURON     CLOUDY    73  63  68 W6        29.75S
TRI CITIES     CLOUDY    73  64  73 W17G23    29.75R
6HR MIN TEMP:  66; 6HR MAX TEMP:  75;

MIDLAND        CLOUDY    73  62  67 W13G22    29.74R
6HR MIN TEMP:  66; 6HR MAX TEMP:  74;

TROY           CLOUDY    75  60  60 W12G21    29.80S
SAGINAW HB     CLOUDY    72  61  68 W16G29    29.75R
$$
MIZ043>046-050>051-056>058-064>065-071>073-077>080-181900-
SOUTHWEST LOWER MICHIGAN

CITY           SKY/WX    TMP DP  RH WIND       PRES   REMARKS
BATTLE CREEK   CLOUDY    73  62  68 W16       29.85S
6HR MIN TEMP:  67; 6HR MAX TEMP:  75; 6HR PCP: TRACE;

BENTON HARBOR  CLOUDY    74  61  63 W15       29.87R
6HR MIN TEMP:  70; 6HR MAX TEMP:  75;

BIG RAPIDS     CLOUDY    67  59  74 W10G21    29.78R
6HR MIN TEMP:  63; 6HR MAX TEMP:  67;

COLDWATER      CLOUDY    73  60  63 W15G22    29.85S
6HR MIN TEMP:  67; 6HR MAX TEMP:  74;

FREMONT        CLOUDY    69  62  76 W10G17    29.80R
HOLLAND        CLOUDY    71  60  68 NW9G20    29.84S
6HR MIN TEMP:  67; 6HR MAX TEMP:  72; 6HR PCP: TRACE;

GRAND RAPIDS   CLOUDY    72  62  71 W17       29.82R
6HR MIN TEMP:  65; 6HR MAX TEMP:  73; 6HR PCP: TRACE;

IONIA          CLOUDY    72  60  65 W16       29.80R
6HR MIN TEMP:  65; 6HR MAX TEMP:  73;

KALAMAZOO      CLOUDY    73  59  61 W16G23    29.85R
6HR MIN TEMP:  68; 6HR MAX TEMP:  74; 6HR PCP: TRACE;

LUDINGTON      CLOUDY    68  60  74 NW7       29.78S
6HR MIN TEMP:  66; 6HR MAX TEMP:  69;

MARSHALL       CLOUDY    73  60  65 W15       29.84R
6HR MIN TEMP:  66; 6HR MAX TEMP:  75;

MOUNT PLEASANT CLOUDY    72  61  67 W10G16    29.76R
6HR MIN TEMP:  67; 6HR MAX TEMP:  74;

MUSKEGON       CLOUDY    70  61  73 W14G22    29.83R
6HR MIN TEMP:  68; 6HR MAX TEMP:  75; 6HR PCP: TRACE;

SOUTH HAVEN    CLOUDY    71  62  73 W8        29.86R
$$
MIZ016>042-181900-
NORTHERN LOWER MICHIGAN

CITY           SKY/WX    TMP DP  RH WIND       PRES   REMARKS
ALPENA         CLOUDY    69  64  84 W12G23    29.66R
6HR MIN TEMP:  67; 6HR MAX TEMP:  72; 6HR PCP:  0.01;

BEAVER ISLAND  CLOUDY    64  58  81 W12G22    29.72R
6HR MIN TEMP:  63; 6HR MAX TEMP:  65;

BELLAIRE       CLOUDY    64  60  87 W5        29.74R
6HR MIN TEMP:  63; 6HR MAX TEMP:  64;

CADILLAC       CLOUDY    67  61  81 W13       29.76S
CHARLEVOIX     CLOUDY    64  61  89 W17G23    29.75R
6HR MIN TEMP:  63; 6HR MAX TEMP:  64;

FRANKFORT      CLOUDY    69  62  78 NW12G20   29.76S
GAYLORD        LGT RAIN  61  59  93 W8        29.73R FOG
6HR MIN TEMP:  61; 6HR MAX TEMP:  63; 6HR PCP:  0.06;

GRAYLING       CLOUDY    65  61  87 W13G18    29.74R
6HR MIN TEMP:  62; 6HR MAX TEMP:  65;

HARBOR SPRINGS CLOUDY    63  61  93 W9G16     29.71R
HOUGHTON LAKE  CLOUDY    65  62  90 W14       29.74S
6HR MIN TEMP:  64; 6HR MAX TEMP:  66;

MANISTEE       CLOUDY    68  60  75 W13       29.77R
OSCODA         CLOUDY    73  62  68 W17G28    29.67R
6HR MIN TEMP:  68; 6HR MAX TEMP:  73;

PELLSTON       CLOUDY    64  60  87 W17       29.70R
6HR MIN TEMP:  63; 6HR MAX TEMP:  65; 6HR PCP:  0.02;

ROGERS CITY    CLOUDY    66  62  87 W9G16     29.66R
TRAVERSE CITY  CLOUDY    64  62  93 W7        29.74R FOG
6HR MIN TEMP:  64; 6HR MAX TEMP:  66; 6HR PCP: TRACE;

$$
MIZ007>008-015-181900-
EASTERN UPPER MICHIGAN

CITY           SKY/WX    TMP DP  RH WIND       PRES   REMARKS
KINROSS        CLOUDY    65  61  87 W15G22    29.64R
6HR MIN TEMP:  63; 6HR MAX TEMP:  67;

MACKINAC ISLAN CLOUDY    64  64  99 W16G23    29.66R
6HR MIN TEMP:  63; 6HR MAX TEMP:  65; 6HR PCP:  0.04;

NEWBERRY       CLOUDY    61  60  97 W14G23    29.68R
6HR MIN TEMP:  59; 6HR MAX TEMP:  62; 6HR PCP:  0.01;

S. S. MARIE    CLOUDY    63  60  90 W12G22    29.62R
6HR MIN TEMP:  62; 6HR MAX TEMP:  66; 6HR PCP: TRACE;

MUNISING         N/A     62  59  90 NW15G26   29.73R
6HR MIN TEMP:  60; 6HR MAX TEMP:  62; 6HR PCP:  0.03;

$$
MIZ004>006-011>014-085-181900-
CENTRAL UPPER MICHIGAN

CITY           SKY/WX    TMP DP  RH WIND       PRES   REMARKS
MANISTIQUE     CLOUDY    62  56  81 NW10G17   29.72R
6HR MIN TEMP:  60; 6HR MAX TEMP:  64;

ESCANABA       CLOUDY    65  58  78 NW9       29.75R
6HR MIN TEMP:  63; 6HR MAX TEMP:  66;

MENOMINEE      CLOUDY    68  57  68 NW9G17    29.78R
6HR MIN TEMP:  65; 6HR MAX TEMP:  69;

SAWYER-GWINN   CLOUDY    61  55  82 NW14      29.76R
$$
MIZ001>003-009>011-084-181900-
WESTERN UPPER MICHIGAN

CITY           SKY/WX    TMP DP  RH WIND       PRES   REMARKS
IRON MOUNTAIN  CLOUDY    68  55  63 NW13      29.77S
6HR MIN TEMP:  62; 6HR MAX TEMP:  68;

HOUGHTON         N/A    N/A N/A N/A MISG      29.78R
COPPER HARBOR    N/A     60  55  83 N15       29.73R
6HR MIN TEMP:  56; 6HR MAX TEMP:  60;

IRONWOOD       CLOUDY    65  57  75 NW9       29.86R
6HR MIN TEMP:  59; 6HR MAX TEMP:  65; 6HR PCP:  0.02;

$$

ABBREVIATIONS USED IN REMARKS
   TC - TEMPERATURE IN CELSIUS
  WCI - WIND CHILL INDEX
   HX - HEAT INDEX
  VSB - VISIBILITY





USA.gov is the U.S. government's official web portal to all federal, state and local government web resources and services.